Retour au catalogue

NOAA 16 DEB

ActifSSO
NORAD 41305·DEBRIS·🇺🇸 United States

Lancé Sep 21, 2000 depuis Vandenberg Space Force Base

Loading…

Prochains Passages (prochaines 24 heures)

TLE

FraisSource: Space-Track

Époque: Sep 14, 2026, 10:34 UTC

1 41305U 00055HH  26257.44056524  .00002062  00000-0  10076-2 0  9991
2 41305  98.7354 248.6235 0035628   7.1732 352.9946 14.18730534550177

Suivez NOAA 16 DEB en temps réel avec AllMySat

Download on the App Store